Preview of NWS' New Version of Forecast
This preview is not operational and should not be used for support decisions.

Regional Weather Roundup (RWR)

Issued by National Weather Service (NWS)

                            
000
ASUS43 KTOP 181159
RWRKS 

WEATHER ROUNDUP FOR KANSAS
NATIONAL WEATHER SERVICE GOODLAND KS
700 AM CDT SAT MAY 18 2019

NOTE:  "FAIR" INDICATES FEW OR NO CLOUDS BELOW 12,000 FEET WITH NO
SIGNIFICANT WEATHER AND/OR OBSTRUCTIONS TO VISIBILITY.

KSZ001>006-013>018-027>032-041>047-181300-
NORTHWEST KANSAS
  
CITY           SKY/WX    TMP DP  RH WIND       PRES   REMARKS
GOODLAND       PTCLDY    44  41  89 W8        29.68R                  
6HR MIN TEMP:  43; 6HR MAX TEMP:  50;                                

HAYS           CLEAR     51  48  89 W9        29.62S                  
HILL CITY      CLEAR     48  45  89 CALM      29.64R                  
6HR MIN TEMP:  47; 6HR MAX TEMP:  59;                                

RUSSELL        CLEAR     53  49  86 NW9       29.60S                  
6HR MIN TEMP:  52; 6HR MAX TEMP:  68; 6HR PCP:  0.13;                

$$

KSZ061>065-074>080-084>089-181300-
SOUTHWEST KANSAS
  
CITY           SKY/WX    TMP DP  RH WIND       PRES   REMARKS
DODGE CITY     CLEAR     49  44  83 NW6       29.64S                  
6HR MIN TEMP:  48; 6HR MAX TEMP:  70; 6HR PCP: TRACE;                

GARDEN CITY    CLEAR     49  45  86 NW9       29.65F                  
6HR MIN TEMP:  45; 6HR MAX TEMP:  59;                                

GREAT BEND     CLEAR     53  50  89 NW5       29.62S                  
LIBERAL        CLEAR     46  44  93 NW9       29.68R                  
$$

KSZ066>073-081>083-090>101-181300-
SOUTHEAST KANSAS
  
CITY           SKY/WX    TMP DP  RH WIND       PRES   REMARKS
CHANUTE        CLOUDY    74  66  76 S15G24    29.68R                  
6HR MIN TEMP:  73; 6HR MAX TEMP:  75;                                

COFFEYVILLE    CLOUDY    73  66  78 S16G26    29.66S                  
6HR MIN TEMP:  72; 6HR MAX TEMP:  74;                                

HUTCHINSON     CLEAR     68  66  93 S7        29.60S                  
6HR MIN TEMP:  68; 6HR MAX TEMP:  71;                                

MEDICINE LODGE   N/A     71  68  90 SW3       29.59R                  
NEWTON         CLOUDY    71  67  87 S16       29.62F                  
PARSONS        MOCLDY    73  67  81 S10G25    29.69S                  
6HR MIN TEMP:  72; 6HR MAX TEMP:  74;                                

WICHITA INTL   CLOUDY    73  67  81 S12       29.61S                  
6HR MIN TEMP:  71; 6HR MAX TEMP:  73;                                

WICHITA JABRA  CLOUDY    72  67  84 S13       29.61F                  
6HR MIN TEMP:  71; 6HR MAX TEMP:  73;                                

WICHITA MCCONL CLOUDY    73  66  78 SE16      29.62                   
WINFIELD       CLOUDY    72  67  84 S17G24    29.63R                  
6HR MIN TEMP:  71; 6HR MAX TEMP:  72;                                

$$

KSZ007>012-019>026-033>040-048>060-102>105-181300-
NORTHEAST KANSAS
  
CITY           SKY/WX    TMP DP  RH WIND       PRES   REMARKS
CONCORDIA      PTCLDY    59  56  89 SE7       29.60S                  
6HR MIN TEMP:  59; 6HR MAX TEMP:  67; 6HR PCP:  0.38;                

EMPORIA        CLOUDY    71  67  87 N9        29.68R                  
6HR MIN TEMP:  70; 6HR MAX TEMP:  72; 6HR PCP: TRACE;                

LAWRENCE       LGT RAIN  63  60  90 NW6       29.72R FOG              
6HR MIN TEMP:  63; 6HR MAX TEMP:  74; 6HR PCP:  0.20;                

MANHATTAN      CLOUDY    61  58  90 E7        29.63S                  
6HR MIN TEMP:  60; 6HR MAX TEMP:  74; 6HR PCP:  0.55;                

OLATHE IND     LGT RAIN  62  60  93 NW10      29.75R FOG              
6HR MIN TEMP:  62; 6HR MAX TEMP:  72; 6HR PCP:  0.07;                

OLATHE EXE     LGT RAIN  63  60  90 NW6       29.72R FOG              
6HR MIN TEMP:  63; 6HR MAX TEMP:  71; 6HR PCP:  0.04;                

SALINA         CLEAR     60  55  83 W7        29.60R                  
6HR MIN TEMP:  60; 6HR MAX TEMP:  74; 6HR PCP:  0.28;                

TOPEKA BILLARD LGT RAIN  63  59  87 W3        29.72R                  
6HR MIN TEMP:  63; 6HR MAX TEMP:  75; 6HR PCP:  0.24;                

TOPEKA FORBES  LGT RAIN  62  59  90 CALM      29.72R                  
6HR MIN TEMP:  61; 6HR MAX TEMP:  74; 6HR PCP:  0.20;                

$$